Showing default

NINGXIA-1 6, 49018

Orbit data source: Space-Track

NINGXIA-1 6, 49018 is a Chinese payload satellite in LEO that was launched on Fri, 09 Jul 2021 UTC via a CHANG ZHENG 6 launch vehicle from the Taiyaun Space Center, China (TSC). Payload-class satellites include a variety of spacecraft equipped with specific instruments for various scientific and technological missions. These include communications satellites like Starlink; space stations such as the ISS; scientific satellites like the Hubble; Earth observation satellites from companies like Planet Labs, Umbra, and HawkEye 360; GPS; miniature CubeSats for education and research; and military/defense satellites.

Loading next visibility...
Identifier
49018, 2021-064A
Orbit
LEO
Country
Flag of CNCN / PRC
Related business
Manufacturer
DFH
Mission
Operational Commercial Sigint
Bus & Motor
NX-1, Unknown motor
Mass
~100 kg wet, ~100 kg dry
Launch date (UTC)
2021-07-09 (5 years ago)
Launch vehicle
CHANG ZHENG 6
Launch site
Taiyaun Space Center, China (TSC)
Object type
Payload
Rocket body
Debris
Shape & HBR
Box + 2 Pan, 0.5 m
Radar Cross Section
0.166 m², Medium (>0.1 m² and < 1m²)

Expand to show TLE details & history
Last TLE update: 14 hours ago

TLE from 14 hours ago
0 NINGXIA-1 6
1 49018U 21064A   26171.53706118  .00000093  00000-0  12975-3 0  9992
2 49018  44.9984 211.9650 0009239 248.3201 111.6652 14.08535727254688
Epoch: 2026-06-20T12:53Z
TLE epoch observation values (Epoch: 2026-06-20T12:53:22.085Z)
Latitude
-0.00003°
Longitude
109.87268°
Altitude
866.861 km
Speed
7.419 km/s
True Right ascension
14h 07m 51s
True Declination
0° 00' 00"
Sunlit
Object was in full shadow at epoch
Visualization orbit readout
Latitude
Unknown
Longitude
Unknown
Altitude
Unknown
Speed
Unknown
Apparent Right ascension
Unknown
Apparent Declination
Unknown
Sunlit
N/A
Visualization observer readout
Local Sidereal Time
14:08:45
Azimuth
Unknown
Elevation
Unknown
Doppler factor
Unknown
Orbital elements
Apogee altitude
872.605 km
Perigee altitude
859.219 km
Semi-major axis
7,244.049 km
Eccentricity
0.00092
Inclination
44.9984°
RAAN
211.965°
Arg. of periapsis
248.3201°
True anomaly
111.76355°
Mean anomaly
111.6652°
Eccentric anomaly
111.71438°
Mean motion
3.52023 °/min
Orbital period
102.27 mins
BSTAR
0.00012975
Loading maneuver chart data...
Computing Atmospheric mass density...
Loading historical data...
Loading historical data...
Loading historical data...
Loading historical data...
Loading historical data...
Loading historical data...
Loading historical data...
Other satellites on launch #64 in the year 2021 (2021-07-09 UTC)

Documentation

Showing up to 5 results
|